Regional Weather Roundup
Issued by NWS

Home | Current Version | Previous Version | Graphics & Text | Print | Product List | Glossary On
Versions: 1 2 3 4 5 6 7 8 9 10 11 12 13 14 15 16 17 18 19 20 21 22 23 24 25 26 27 28 29 30 31 32 33 34 35 36 37 38 39 40 41 42 43 44 45 46 47 48 49 50
000
ASUS43 KLOT 112358
RWRIL

ILLINOIS REGIONAL WEATHER ROUNDUP
NATIONAL WEATHER SERVICE CHICAGO/ROMEOVILLE IL
700 PM CDT FRI JUL 11 2014

NOTE: "FAIR" INDICATES FEW OR NO CLOUDS BELOW 12,000 FEET WITH NO
SIGNIFICANT WEATHER AND/OR OBSTRUCTIONS TO VISIBILITY.

* THESE STATIONS ARE NOT UNDER NWS QUALITY CONTROL. THEY ALSO MAY NOT
  REPORT WEATHER SUCH AS PRECIPITATION OR FOG.

ILZ001-002-007-009-015-016-024-120100-
NORTHWEST ILLINOIS

CITY           SKY/WX    TMP DP  RH WIND       PRES   REMARKS
MOLINE         CLOUDY    76  67  73 SW5       30.05R
6HR MIN TEMP:  76; 6HR MAX TEMP:  83; 6HR PCP: TRACE;

$$

ILZ003-004-008-010-011-017-018-120100-
NORTH CENTRAL ILLINOIS

CITY           SKY/WX    TMP DP  RH WIND       PRES   REMARKS
ROCKFORD       NOT AVBL
$$

ILZ005-006-012>014-019>023-120100-
NORTHEAST ILLINOIS

CITY           SKY/WX    TMP DP  RH WIND       PRES   REMARKS
CHICAGO-OHARE  CLOUDY    76  57  51 S5        30.11R
6HR MIN TEMP:  72; 6HR MAX TEMP:  81; 6HR PCP:  0.01;

CHICAGO-MIDWAY CLOUDY    80  56  43 S8        30.11R HX  80
6HR MIN TEMP:  80; 6HR MAX TEMP:  83; 6HR PCP: TRACE;

AURORA         LGT RAIN  74  60  61 S8        30.11S
6HR MIN TEMP:  74; 6HR MAX TEMP:  80; 6HR PCP: TRACE;

WAUKEGAN       CLOUDY    73  57  57 S5        30.11S
6HR MIN TEMP:  70; 6HR MAX TEMP:  77; 6HR PCP: TRACE;

DUPAGE AIRPORT CLOUDY    75  60  59 S6        30.11R
6HR MIN TEMP:  75; 6HR MAX TEMP:  81;

WHEELING       CLOUDY    76  58  53 SE3       30.13R
6HR MIN TEMP:  74; 6HR MAX TEMP:  82; 6HR PCP: TRACE;

NORTHERLY ISL    N/A     71  64  78 CALM        N/A
$$

LMZ740>746-120100-
SOUTHERN LAKE MICHIGAN

STATION/POSITION SKY/WX   TEMP    WIND        PRES    VSBY  WAVE
                          AIR SEA DIR/SP/G                  HT/PER
                          (F)     (DEG/KT/KT) (MB)    (MI)  (FT/S)
SOUTHERN BUOY              66 64  150/  6/  8 1019.5F         0
WAUKEGAN HARBOR            67     190/  9/ 10 1020.7R
HARRISON CRIB              71     130/ 14/ 15   N/A
BURNHAM HARBOR             71     130/  1/ 12   N/A
CALUMET HARBOR             78     170/  4/  8 1020.5R
BURNS HARBOR               76     190/ 11/ 14 1020.0
MICHIGAN CITY              77     160/  9/ 12   N/A
$$

ILZ025>027-034>036-040-047-049-050-058-095>099-120100-
WEST-CENTRAL ILLINOIS

CITY           SKY/WX    TMP DP  RH WIND       PRES   REMARKS
$$

ILZ028>032-037-038-041>044-048-051>054-059>061-120100-
CENTRAL ILLINOIS

CITY           SKY/WX    TMP DP  RH WIND       PRES   REMARKS
PEORIA         NOT AVBL
SPRINGFIELD    MOSUNNY   82  65  56 S7        30.10R HX  84
6HR MIN TEMP:  81; 6HR MAX TEMP:  85;

TAYLORVILLE    NOT AVBL
$$

ILZ033-039-045-046-055>057-062-063-120100-
EAST-CENTRAL ILLINOIS

CITY           SKY/WX    TMP DP  RH WIND       PRES   REMARKS
CHAMPAIGN      MOSUNNY   79  62  56 SE7       30.13S HX  80
MATTOON        SUNNY     81  61  50 S6        30.12R HX  82
$$

ILZ079-100>102-120100-
SOUTHWEST ILLINOIS

CITY           SKY/WX    TMP DP  RH WIND       PRES   REMARKS
CAHOKIA*       MOSUNNY   87  70  56 S7        30.06F HX  92
$$

ILZ064>066-069>071-074>076-080>082-084>086-088>090-092>094-120100-
SOUTH-CENTRAL ILLINOIS

CITY           SKY/WX    TMP DP  RH WIND       PRES   REMARKS
CARBONDALE     SUNNY     86  68  54 S8        30.10S HX  89
6HR MIN TEMP:  85; 6HR MAX TEMP:  89;

$$

ILZ067-068-072-073-078-083-087-091-120100-
SOUTHEAST ILLINOIS

CITY           SKY/WX    TMP DP  RH WIND       PRES   REMARKS
$$

ABBREVIATIONS USED IN REMARKS
   TC - TEMPERATURE IN CELSIUS
  WCI - WIND CHILL INDEX
   HX - HEAT INDEX
  VSB - VISIBILITY
$$




USA.gov is the U.S. government's official web portal to all federal, state and local government web resources and services.